User: anonymous   Login
Location: Unspecified
(0.0000°N, 0.0000°E)
Time: 01:59:30
(UTC+00:00)
Language:

M-CUBED/EXP-1 PRIME - Orbit

View from above orbital plane
View from above orbital plane
View from above satellite
View from above satellite

Ground track
Ground track

The orbit data is extracted from the following two-line orbital elements,

1 37855U 11061F   17147.89165134 +.00002107 +00000-0 +11772-3 0  9995
2 37855 101.7193 009.0146 0180968 141.4441 219.9857 15.02961483303278
Epoch (UTC): 27 May 2017 21:23:58
Eccentricity: 0.0180968
inclination: 101.7193°
perigee height: 432 km
apogee height: 683 km
right ascension of ascending node: 9.0146°
argument of perigee: 141.4441°
revolutions per day: 15.02961483
mean anomaly at epoch: 219.9857°
orbit number at epoch: 30327

The dashed part of the orbit path shows where the satellite is in the earth's shadow,  

DLR